CAPE
15 15 16 9 6 15 0 0 9 0 0 0 5 13 3 0 1 3 0 2 8 2 2 3 0 0 0 0 0 0 4 19 25 18 0 0 0 0 0 3 0 0 0 0
9 10 8 6 2 1 6 3 2 1 0 2 3 0 1 14 10 5 3 1 0 0 0 0 0 0 0 0 0 0 0 0 4 19 8 2 0 1 0 0 0 1 2 0
12 6 13 3 1 0 0 4 1 0 6 0 4 4 1 4 35 31 1 1 1 1 0 0 0 0 0 0 0 0 0 0 0 0 0 0 0 0 0 0 9 0 0 0
5 7 9 6 0 0 0 1 11 2 6 1 1 10 4 0 19 7 11 9 1 0 3 0 0 0 0 0 0 0 0 0 0 0 0 0 0 0 0 0 0 0 0 0
2 4 6 8 3 0 0 2 11 9 2 0 10 5 3 5 1 13 5 8 6 0 0 0 0 0 0 0 0 0 0 0 0 0 0 0 0 0 0 0 0 0 0 0
0 2 3 9 3 0 0 0 0 23 0 0 7 15 17 8 6 16 21 7 12 0 0 0 0 0 0 0 0 0 0 0 0 0 0 0 0 0 0 0 0 0 0 0
0 0 1 3 8 2 11 3 13 18 0 0 13 11 14 10 4 18 8 5 4 0 0 0 0 0 0 0 0 0 0 0 0 0 0 0 0 0 0 0 0 0 0 0
0 0 0 3 7 9 11 4 2 7 5 0 0 0 17 7 0 13 25 1 0 0 0 2 0 0 0 0 0 0 0 0 0 0 0 0 0 0 0 0 0 0 0 0
1 0 0 0 4 12 0 8 7 2 7 0 0 0 7 11 8 4 25 9 0 0 4 4 4 9 0 0 0 0 0 0 0 0 0 0 0 0 0 0 0 0 0 0
1 0 0 0 3 9 18 25 16 19 5 0 0 0 0 10 13 10 4 0 0 0 3 9 4 1 0 0 0 0 0 0 0 0 0 0 0 0 0 4 1 0 1 0
0 1 1 6 11 10 6 0 33 21 27 0 0 0 0 0 3 13 4 1 3 2 3 2 0 0 0 0 0 0 0 0 0 0 0 0 0 0 8 2 2 2 0 0
0 7 6 19 12 21 11 6 33 28 17 0 0 0 0 0 0 2 4 1 1 2 0 2 0 1 0 0 0 0 0 0 0 0 0 0 0 0 0 0 0 0 0 0
0 0 5 22 34 29 18 11 11 32 27 0 0 0 0 0 0 0 2 5 0 8 1 0 3 0 0 1 1 0 0 0 0 0 0 0 0 0 0 0 0 0 0 0
3 16 27 12 24 28 2 4 3 35 38 29 0 0 0 0 0 0 0 0 0 0 5 8 30 12 0 0 0 0 0 0 0 0 0 0 0 0 0 0 0 0 0 0
15 22 22 20 22 41 6 0 0 21 40 12 1 0 0 0 0 0 0 0 0 7 8 16 20 18 0 0 0 0 0 0 0 0 0 0 0 0 0 0 0 0 0 0
20 22 18 15 35 54 8 5 10 12 35 38 16 0 0 0 0 0 1 1 0 7 12 20 4 10 2 0 0 0 0 0 0 0 0 0 0 0 0 0 0 0 0 0
11 13 25 14 16 12 18 0 14 7 19 34 3 0 1 0 6 26 25 0 5 4 25 20 15 22 2 7 0 0 0 0 0 0 0 0 0 0 0 0 0 0 0 0
10 20 17 2 0 13 9 5 36 19 22 40 3 0 0 9 45 40 23 15 6 35 7 8 14 8 4 1 0 0 0 0 0 0 0 0 0 0 0 0 0 0 0 0
7 2 0 0 12 22 17 13 10 23 11 31 18 10 9 2 21 19 18 17 5 8 12 6 5 11 6 0 0 0 0 0 0 0 0 0 0 0 0 0 0 0 0 0
0 0 10 8 4 1 7 15 11 5 18 27 10 0 4 3 18 5 1 4 4 0 0 3 2 2 0 0 0 0 0 0 0 0 0 0 0 0 0 0 0 0 0 0
3 1 0 2 1 0 16 15 17 6 14 4 4 2 5 11 6 6 13 1 1 2 0 2 0 0 0 0 0 0 0 0 0 0 0 0 0 0 0 0 0 0 0 0
2 9 2 8 1 3 13 5 16 11 5 6 11 12 8 5 14 6 2 0 1 4 1 12 1 0 0 0 0 0 0 0 0 0 0 0 0 0 0 0 0 0 0 0
1 0 3 6 4 3 4 3 11 12 0 0 1 6 8 7 7 1 0 4 3 0 5 1 0 0 0 0 0 0 0 0 0 0 0 0 0 0 2 2 0 0 0 0
0 0 0 1 3 8 9 12 8 7 0 0 1 3 4 4 1 2 2 2 0 0 5 0 0 2 0 0 0 0 0 1 3 3 6 6 8 7 9 8 7 5 2 1
0 0 0 0 2 0 1 0 2 2 0 2 2 1 4 0 0 0 0 4 0 0 1 0 0 1 0 1 0 0 0 0 1 1 0 0 0 1 2 3 6 2 1 2
1 0 0 0 0 0 0 2 0 2 3 1 2 1 1 0 0 1 2 3 3 0 0 0 0 0 0 0 0 0 0 0 0 0 0 0 0 0 0 0 0 0 0 0
0 0 0 0 1 0 1 1 1 0 4 6 2 2 2 0 1 1 0 1 0 0 0 0 0 0 0 0 0 0 0 0 0 0 0 0 0 0 0 0 0 0 0 0
CIN
-0 0 0 0 0 0 0 0 -1 0 0 -0 -4 -1 -3 0 -20 -28 -26 -11 -0 -16 -2 -8 0 0 0 0 0 0 -1 0 0 0 -0 0 0 0 0 -0 0 0 0 0
-0 0 0 0 0 0 -0 -0 -0 -7 0 0 -0 0 -1 -0 0 -6 -8 -0 -6 -1 0 -3 -0 0 0 0 0 0 0 0 0 0 0 -0 -0 -0 0 0 0 -13 -19 0
-0 0 -0 0 0 0 0 -1 -0 -1 -5 0 -0 0 -2 -11 -7 -4 -2 -0 -1 -4 -1 0 0 0 0 0 0 0 0 0 0 0 0 0 0 0 0 0 -2 0 0 0
-0 -0 0 0 0 0 0 -1 -0 -0 0 -0 0 -0 -2 0 -0 -7 -6 -1 -0 0 -4 -1 0 0 0 0 0 0 0 0 0 0 0 0 0 0 0 0 0 -0 0 0
-0 -0 0 -0 0 0 0 0 0 -1 0 0 0 0 0 0 0 -1 -0 -1 -1 0 0 0 0 0 0 0 0 0 0 0 0 0 0 0 0 0 0 0 0 0 0 0
0 0 -0 -0 0 0 -0 -0 0 -0 -0 -0 0 0 0 0 0 -1 -0 -3 -2 0 0 0 0 0 0 0 0 0 0 0 0 0 0 0 0 0 0 0 0 0 0 0
0 0 -0 -0 -0 -2 -4 -1 -1 0 0 -0 0 0 0 0 0 -1 -0 -6 -4 0 0 0 0 0 0 0 0 0 0 0 0 0 0 0 0 0 0 0 0 0 0 0
0 0 0 0 -0 0 -8 -4 -0 -0 0 0 -0 0 0 0 0 -1 -0 -3 0 0 0 -10 -0 0 -2 0 0 0 0 0 0 0 0 0 0 0 0 0 0 0 0 0
-13 0 0 0 -0 -0 0 -6 -8 -1 0 0 0 0 0 0 0 0 -0 -12 0 0 -18 -8 -5 -1 0 0 0 0 0 0 0 0 0 0 -0 0 0 0 -1 0 0 0
-10 0 0 0 0 -0 -2 -4 -9 -1 -0 0 0 0 0 0 0 0 -0 0 0 -6 -8 -4 -7 -11 0 -1 -1 -0 0 0 0 0 0 0 0 0 0 -7 0 0 -1 0
0 -0 0 -1 -0 -0 -3 -0 -8 -3 -0 0 0 0 0 -0 -0 0 0 -1 -0 -9 -2 -5 -1 -5 0 0 0 0 0 0 0 0 0 0 0 0 -8 -4 -12 -4 0 0
0 0 0 -1 -1 -0 -1 -1 -3 -8 -0 0 0 0 0 0 0 0 0 -0 -0 -3 -3 -9 -2 -2 0 0 -13 0 0 0 0 0 0 0 0 0 0 0 0 0 0 0
0 -0 -0 0 -0 -1 -1 -2 -1 -4 -0 0 0 0 0 0 0 0 0 -3 -0 -2 -0 0 -8 -6 0 -3 -1 0 0 0 0 0 0 0 0 0 0 0 0 0 0 0
-0 0 -0 0 -0 -1 -0 -2 -1 -2 0 0 0 0 0 0 0 0 0 0 0 0 -3 -0 -6 -10 0 0 0 0 0 0 0 0 0 0 0 0 0 0 0 0 0 0
0 -0 -0 -0 -0 -0 -2 0 0 -2 -0 -0 -0 0 0 0 0 0 0 0 0 -0 -0 -2 -2 -5 0 0 0 0 0 0 0 0 0 0 0 0 0 0 0 0 0 0
0 -0 0 -0 0 -0 -2 0 -2 -3 -5 -0 -1 0 0 0 0 0 -3 -1 0 -0 0 -1 -13 -7 -14 0 -3 0 0 0 0 0 0 0 0 0 0 0 0 0 0 0
0 0 -0 -0 -0 -2 -3 0 -2 -3 -2 0 -0 0 -6 -0 -3 -1 -3 -0 -0 -0 -1 -1 -1 -4 -3 -2 0 0 0 0 0 0 0 0 0 0 0 0 0 0 0 0
0 0 -0 0 0 -0 -1 -13 -6 -1 0 0 -0 0 0 -1 -0 0 -4 -2 -2 -0 -9 -2 -2 -8 -13 -0 0 0 0 0 0 0 0 0 0 0 0 0 0 0 0 0
0 0 0 0 -3 -0 -0 -2 -3 -1 -0 -0 -0 -0 0 0 -1 -3 -1 -6 0 -1 0 -1 -7 -3 -5 0 0 0 0 0 0 0 0 0 0 0 0 0 0 0 0 0
0 0 -3 -1 -0 -5 -1 -0 -0 0 0 -0 0 0 0 0 -0 0 0 -2 0 0 -7 -6 -0 -3 0 0 0 0 0 0 0 0 0 0 0 0 0 0 0 0 0 0
-3 -1 -0 -1 -10 0 0 0 0 -0 0 0 0 -0 -0 -0 0 0 -0 -0 -2 -0 0 -0 -0 0 0 0 0 0 0 0 0 0 0 0 -0 -0 0 0 0 0 0 0
-1 -0 -2 -1 -1 0 0 0 0 0 0 -0 0 0 0 0 -0 0 -0 -0 0 -1 -0 -0 -4 0 0 0 0 0 0 0 0 0 0 0 0 0 0 0 0 0 0 0
-1 -1 -2 0 0 0 0 0 0 0 0 0 0 0 0 -0 0 0 0 0 0 -1 0 -1 0 0 0 0 0 0 0 0 -0 0 -0 0 0 0 0 0 0 0 0 0
-0 0 0 -2 -1 0 0 0 0 0 0 0 0 0 0 0 0 0 0 0 0 -0 -0 0 0 0 0 0 0 0 0 0 0 0 0 0 0 0 0 0 0 0 0 0
0 0 0 0 -5 -3 0 0 -0 -0 0 0 0 0 0 0 0 0 0 -0 -0 -0 -2 0 0 0 0 0 0 0 0 0 0 -0 -0 -0 0 0 0 0 0 0 0 0
-1 -0 -0 0 0 0 0 -0 0 -1 0 -0 0 0 0 0 0 0 0 0 -0 0 0 0 0 0 0 0 0 0 0 0 0 0 0 0 0 -0 0 0 0 0 0 0
0 -0 -0 -0 -0 -1 -2 -3 -0 0 0 0 0 0 0 0 0 -0 0 0 0 0 0 0 0 0 0 0 0 0 0 0 0 0 0 0 0 0 0 0 0 0 0 0
Wind_Speed
23 24 26 29 30 31 10 5 2 1 2 3 2 4 5 2 8 4 7 5 8 9 9 11 6 7 6 6 6 4 6 5 5 3 4 12 5 7 5 2 4 2 2 5
21 22 24 28 30 29 7 6 4 4 6 4 4 9 8 2 6 8 7 7 6 7 5 4 6 6 7 7 6 4 4 2 5 7 3 2 6 10 5 0 3 4 2 2
20 21 23 26 29 29 7 4 5 4 3 1 3 5 7 9 4 4 6 7 5 8 7 8 6 3 5 5 4 9 4 3 4 4 6 9 6 14 11 4 2 2 3 4
19 20 23 24 27 29 5 5 3 2 5 4 10 7 7 9 12 9 7 4 9 9 5 7 4 3 4 2 3 1 5 6 7 8 8 7 7 10 11 5 5 3 3 7
17 19 21 22 24 28 5 4 4 4 5 10 9 9 8 8 8 7 8 9 10 11 6 6 7 7 7 5 4 3 3 3 5 5 5 6 5 5 7 7 4 2 5 6
15 17 18 19 19 16 4 4 3 3 6 6 5 4 6 8 15 9 6 8 6 6 5 8 7 2 3 3 6 3 4 4 1 1 3 5 2 6 7 5 4 5 4 3
12 13 15 16 15 12 4 3 1 3 4 5 5 7 10 9 13 8 9 9 5 4 7 8 7 3 4 6 4 3 3 3 3 3 3 2 3 5 2 5 6 5 5 5
8 11 12 14 14 13 3 3 3 3 5 7 5 12 7 12 12 8 3 5 4 6 6 3 2 2 1 5 6 7 6 2 2 1 2 4 2 2 3 5 4 7 4 5
7 9 11 12 13 12 4 1 2 3 5 2 8 11 6 4 5 7 4 4 5 5 3 2 1 0 2 2 0 1 2 3 3 2 0 2 4 4 3 2 2 5 6 6
6 8 10 12 13 13 4 2 2 2 4 6 8 3 5 3 4 5 4 7 5 2 3 2 2 1 2 1 1 0 1 2 1 1 2 3 5 4 2 1 3 5 6 5
6 8 10 11 11 11 2 4 2 0 3 11 6 6 5 5 2 4 7 4 2 3 2 2 2 3 3 3 2 2 1 3 1 4 0 1 2 2 1 3 4 3 0 3
6 7 10 10 10 9 7 2 2 1 3 7 14 18 17 18 15 6 4 4 3 3 3 3 2 3 1 3 1 1 1 2 0 2 1 2 4 5 4 3 2 3 2 4
6 8 10 11 11 10 8 4 4 2 4 9 4 6 7 11 14 11 4 2 4 4 4 3 2 3 2 2 3 4 3 2 1 3 4 4 5 7 6 4 4 4 5 4
9 10 12 11 12 12 10 3 3 1 3 5 4 5 6 5 1 11 13 7 3 4 4 3 2 2 1 2 1 1 1 1 2 3 3 6 6 7 5 4 6 5 4 3
10 12 12 14 14 13 7 5 5 5 3 4 8 16 13 7 13 12 10 10 6 3 3 2 2 2 1 1 2 3 4 3 2 1 4 3 6 6 6 6 6 5 5 4
11 14 13 13 16 13 2 4 4 3 2 4 4 5 8 7 5 12 10 7 3 3 2 3 3 2 0 2 2 4 3 2 4 2 4 5 4 7 8 5 5 4 5 4
14 15 16 14 14 4 3 2 1 3 1 3 5 5 2 4 4 5 3 6 3 3 3 3 3 2 2 2 3 3 2 5 7 6 4 3 5 2 4 4 5 5 4 3
15 17 17 16 11 5 2 1 9 3 1 3 3 6 4 3 3 3 4 4 3 3 1 1 3 2 1 4 7 4 5 6 6 6 6 3 3 1 2 3 4 5 6 5
19 18 14 1 2 2 3 7 2 2 1 3 3 3 4 9 2 3 3 3 2 1 4 3 2 3 5 5 4 6 4 4 4 3 1 2 2 4 5 5 5 4 5 5
15 3 1 2 2 6 7 1 1 2 2 3 5 3 4 1 3 2 3 2 3 3 3 1 2 4 2 5 6 5 6 6 3 2 1 3 3 4 5 4 4 5 5 5
4 3 2 2 4 1 0 2 2 3 3 4 4 5 5 3 4 1 2 2 1 2 2 2 3 4 3 6 5 4 4 3 3 2 2 3 4 5 6 6 5 6 7 7
4 4 3 2 2 1 2 3 3 4 3 2 3 3 4 4 3 2 2 2 2 2 2 1 3 1 5 5 5 5 4 4 4 4 4 4 4 5 5 5 5 6 7 7
1 2 2 1 1 3 4 4 2 4 4 3 4 4 5 3 2 1 1 3 2 3 2 4 3 4 5 6 5 5 5 5 5 5 5 4 5 5 5 5 6 7 7 6
2 4 5 1 3 2 2 2 3 3 3 7 7 4 3 0 3 2 3 2 2 2 3 5 2 4 5 5 4 4 3 3 4 4 5 5 5 5 4 5 5 6 6 7
1 1 3 4 2 2 3 4 4 4 4 6 5 4 3 2 2 2 2 3 3 4 2 0 2 5 5 5 4 3 3 2 2 2 3 4 4 5 4 5 5 5 6 6
2 4 2 4 2 2 2 4 7 2 6 5 2 4 2 2 1 2 3 1 2 1 1 1 3 4 4 4 4 4 3 4 3 3 3 4 4 5 4 2 3 4 4 5
3 5 5 5 6 5 4 4 6 5 5 3 4 5 4 3 2 1 1 2 1 2 0 1 2 4 5 5 3 3 2 3 3 3 4 4 5 4 4 5 6 6 4 3
Wind_Direction
353 351 351 349 348 347 345 291 20 350 247 29 343 331 331 284 296 228 268 246 339 352 10 27 68 63 42 349 316 100 138 86 107 78 224 176 158 150 127 196 183 204 193 275
355 354 351 351 350 354 332 341 332 335 13 38 351 335 324 284 329 315 346 342 337 310 6 74 55 52 20 19 31 25 135 155 118 128 95 153 191 159 165 89 23 198 232 224
354 354 356 354 351 351 343 350 350 345 12 167 324 332 317 338 177 277 338 321 331 348 54 48 78 67 16 4 26 315 294 68 70 97 99 138 172 164 167 201 192 190 228 130
355 358 360 1 354 346 337 16 44 52 344 327 326 344 325 342 4 342 358 20 7 350 11 79 71 105 185 99 327 318 41 76 73 66 63 85 128 164 177 153 237 109 193 156
355 2 2 3 3 343 87 36 353 346 286 295 333 1 10 311 343 326 8 358 10 32 47 8 33 347 13 40 355 36 323 125 139 73 82 98 124 171 180 166 242 324 21 73
355 359 4 3 10 358 22 24 327 264 298 344 346 19 333 305 313 300 29 325 311 31 17 334 320 347 61 42 1 30 10 149 220 122 123 126 94 194 174 180 192 173 202 174
350 355 357 1 9 15 340 3 289 310 304 339 346 320 320 306 307 292 347 355 358 11 308 284 254 100 81 51 46 345 6 15 351 134 137 46 149 48 349 175 193 200 103 111
341 348 352 358 2 3 349 8 347 343 305 332 331 332 316 313 318 323 10 20 338 318 303 324 336 272 225 93 35 15 0 8 99 112 170 114 146 194 180 151 184 199 186 149
341 339 348 349 351 5 337 74 299 312 310 203 338 336 347 335 327 322 10 48 324 332 284 302 274 31 334 97 181 32 317 345 89 64 185 161 106 128 15 52 125 124 139 91
325 330 337 342 351 355 348 315 98 279 298 280 6 324 319 302 312 293 309 344 329 290 324 306 3 64 333 308 275 48 80 343 186 199 23 71 131 126 112 216 128 119 108 114
307 320 329 333 345 344 335 286 188 230 280 290 265 288 316 292 268 299 334 308 321 336 321 1 352 356 35 309 57 342 192 156 230 32 324 248 132 100 17 82 80 112 244 127
296 318 317 326 330 339 348 289 353 240 224 267 297 281 267 253 257 286 279 298 291 7 329 347 315 308 33 8 120 348 360 83 33 96 161 108 65 84 67 60 60 2 8 105
295 305 309 319 327 336 329 290 290 267 267 283 274 272 279 221 222 223 256 216 351 18 351 306 296 298 27 338 20 1 166 93 278 22 171 169 154 80 68 56 74 54 49 48
306 307 316 324 322 313 314 286 281 267 290 283 285 307 309 324 243 203 232 272 343 318 287 279 279 281 125 346 239 293 145 106 269 270 176 126 123 91 40 39 61 35 42 68
310 309 310 312 310 308 307 279 261 222 236 293 300 304 274 274 215 208 213 234 245 279 301 270 267 311 352 182 43 259 173 216 181 294 28 59 94 98 44 43 44 38 16 10
306 308 308 309 312 319 340 324 36 8 177 284 298 306 290 292 191 191 197 203 182 233 227 261 226 237 322 292 252 252 106 65 29 80 62 73 48 99 55 21 0 23 356 360
308 309 308 309 308 301 215 210 108 7 61 286 287 286 291 307 167 172 171 153 189 215 233 226 234 209 178 264 233 216 138 135 98 70 4 149 40 83 9 12 349 342 311 268
308 306 309 305 300 280 243 244 262 146 226 254 283 276 293 227 156 182 172 161 176 215 240 290 271 122 124 253 256 337 63 77 93 89 53 37 341 311 62 33 1 347 337 345
312 310 306 271 55 330 5 336 206 217 262 278 240 290 312 324 248 168 159 122 174 229 218 208 191 192 220 227 220 254 127 103 106 59 324 296 345 26 14 356 336 330 323 331
319 316 288 84 28 325 332 283 298 180 213 233 246 274 263 36 303 168 108 169 196 179 216 108 225 251 203 82 71 65 57 66 24 22 57 20 5 4 341 321 317 313 314 310
326 343 27 310 294 54 119 282 247 182 238 216 244 241 255 223 250 130 195 160 149 170 189 211 249 257 116 109 99 82 73 67 61 32 344 302 298 311 317 321 335 325 317 308
306 297 294 287 13 220 262 233 212 230 265 215 251 287 211 255 250 188 220 133 144 173 101 214 250 151 121 126 107 93 65 41 37 26 2 356 332 331 322 321 328 327 318 307
238 205 244 342 95 291 252 346 58 311 329 339 324 314 288 220 253 35 146 157 172 99 187 234 237 115 114 120 119 82 49 39 42 29 22 10 354 354 350 340 343 331 322 333
12 348 354 286 258 225 356 332 283 276 261 288 301 253 254 276 197 184 175 121 111 209 228 229 145 155 125 88 86 120 91 67 50 35 19 18 11 4 8 1 345 336 338 337
85 269 225 224 261 222 269 290 289 286 272 295 282 250 251 214 221 202 134 163 228 226 262 335 142 131 123 126 119 118 119 78 51 27 11 1 358 3 359 3 356 350 344 345
219 227 287 255 277 276 336 308 307 298 306 282 230 270 251 198 305 197 203 219 236 34 302 183 130 136 123 123 119 80 58 40 29 26 9 349 359 348 325 359 11 340 344 340
221 242 239 261 276 260 290 303 304 324 303 325 300 305 3 287 238 240 294 357 18 347 282 88 123 134 124 109 101 96 73 55 38 11 18 351 338 335 22 5 344 329 326 290